When you browse on this site, cookies collect data to enhance your experience and personalize the content and advertising you see.
Visit our Privacy Policy to learn more. By continuing to use the site, you agree to this use of cookies and data.

Hourly Weather Eugene

Today, 4 August, Tuesday

Time Temperature Precipitation Wind Pressure Humidity
00:00 +15°C° 0 mm 0 mps 752 mmHg 95%
01:00 +14°C° 0 mm 0 mps 752 mmHg 96%
02:00 +14°C° 0 mm 0 mps 752 mmHg 96%
03:00 +13°C° 0 mm 0 mps 752 mmHg 96%
04:00 +13°C° 0 mm 0 mps 752 mmHg 97%
05:00 +14°C° 0 mm 0 mps 752 mmHg 93%
06:00 +15°C° 0 mm 0 mps 752 mmHg 90%
07:00 +17°C° 0 mm 0 mps 752 mmHg 87%
08:00 +21°C° 0 mm 1 mps 752 mmHg 78%
09:00 +23°C° 0 mm 1 mps 751 mmHg 69%
10:00 +25°C° 0 mm 2 mps 751 mmHg 60%
11:00 +26°C° 0 mm 2 mps 751 mmHg 53%
12:00 +28°C° 0 mm 3 mps 750 mmHg 46%
13:00 +30°C° 0 mm 3 mps 749 mmHg 39%
14:00 +30°C° 0 mm 3 mps 749 mmHg 38%
15:00 +31°C° 0 mm 3 mps 749 mmHg 36%
16:00 +31°C° 0 mm 2 mps 749 mmHg 35%
17:00 +29°C° 0 mm 2 mps 749 mmHg 44%
18:00 +27°C° 0 mm 2 mps 749 mmHg 52%
19:00 +24°C° 0 mm 1 mps 749 mmHg 61%
20:00 +22°C° 0 mm 1 mps 749 mmHg 70%
21:00 +20°C° 0 mm 1 mps 749 mmHg 79%
22:00 +16°C° 0 mm 0 mps 750 mmHg 88%
23:00 +15°C° 0 mm 0 mps 749 mmHg 90%

Tomorrow, 5 August, Wednesday

Time Temperature Precipitation Wind Pressure Humidity
00:00 +14°C° 0 mm 0 mps 749 mmHg 92%
01:00 +13°C° 0 mm 0 mps 749 mmHg 95%
02:00 +13°C° 0 mm 0 mps 749 mmHg 95%
03:00 +13°C° 0 mm 0 mps 749 mmHg 96%
04:00 +12°C° 0 mm 0 mps 749 mmHg 96%
05:00 +13°C° 0 mm 0 mps 749 mmHg 91%
06:00 +15°C° 0 mm 0 mps 749 mmHg 86%
07:00 +16°C° 0 mm 0 mps 749 mmHg 81%
08:00 +20°C° 0 mm 1 mps 749 mmHg 72%
09:00 +22°C° 0 mm 1 mps 749 mmHg 62%
10:00 +25°C° 0 mm 1 mps 749 mmHg 53%
11:00 +26°C° 0 mm 2 mps 748 mmHg 48%
12:00 +28°C° 0 mm 2 mps 748 mmHg 42%
13:00 +29°C° 0 mm 2 mps 747 mmHg 37%
14:00 +29°C° 0 mm 2 mps 747 mmHg 35%
15:00 +30°C° 0 mm 2 mps 747 mmHg 34%
16:00 +30°C° 0 mm 2 mps 746 mmHg 32%
17:00 +27°C° 0 mm 2 mps 747 mmHg 41%
18:00 +25°C° 0 mm 2 mps 747 mmHg 50%
19:00 +21°C° 0 mm 2 mps 747 mmHg 59%
20:00 +19°C° 0 mm 2 mps 747 mmHg 71%
21:00 +18°C° 0 mm 1 mps 748 mmHg 82%
22:00 +14°C° 0 mm 1 mps 748 mmHg 94%
23:00 +14°C° 0 mm 1 mps 748 mmHg 94%

Day after tomorrow, 6 August, Thursday

Time Temperature Precipitation Wind Pressure Humidity
00:00 +15°C° 0 mm 1 mps 748 mmHg 94%
01:00 +15°C° 0 mm 1 mps 748 mmHg 95%
02:00 +15°C° 0 mm 1 mps 748 mmHg 93%
03:00 +15°C° 0 mm 1 mps 748 mmHg 91%
04:00 +16°C° 0 mm 1 mps 748 mmHg 89%
05:00 +16°C° 0 mm 1 mps 748 mmHg 86%
06:00 +18°C° 0 mm 1 mps 748 mmHg 83%
07:00 +18°C° 0 mm 1 mps 748 mmHg 80%
08:00 +18°C° 0 mm 1 mps 748 mmHg 80%
09:00 +19°C° 0 mm 1 mps 748 mmHg 80%
10:00 +19°C° 0 mm 1 mps 749 mmHg 81%
11:00 +20°C° 0.1 mm 1 mps 749 mmHg 77%
12:00 +21°C° 0.1 mm 1 mps 749 mmHg 73%
13:00 +22°C° 0.1 mm 1 mps 749 mmHg 70%
14:00 +21°C° 0.1 mm 2 mps 749 mmHg 66%
15:00 +23°C° 0.1 mm 2 mps 749 mmHg 62%
16:00 +24°C° 0.1 mm 2 mps 749 mmHg 58%
17:00 +21°C° 0 mm 2 mps 750 mmHg 60%
18:00 +20°C° 0 mm 2 mps 750 mmHg 63%
19:00 +18°C° 0 mm 2 mps 750 mmHg 65%
20:00 +16°C° 0 mm 2 mps 751 mmHg 73%
21:00 +14°C° 0 mm 1 mps 751 mmHg 82%
22:00 +11°C° 0 mm 0 mps 752 mmHg 90%
23:00 +10°C° 0 mm 0 mps 752 mmHg 91%

7 August, Friday

Time Temperature Precipitation Wind Pressure Humidity
00:00 +10°C° 0 mm 0 mps 752 mmHg 93%
01:00 +9°C° 0 mm 0 mps 752 mmHg 94%
02:00 +9°C° 0 mm 0 mps 752 mmHg 95%
03:00 +9°C° 0 mm 0 mps 752 mmHg 95%
04:00 +9°C° 0 mm 0 mps 752 mmHg 96%
05:00 +11°C° 0 mm 1 mps 753 mmHg 91%
06:00 +12°C° 0 mm 1 mps 753 mmHg 87%
07:00 +13°C° 0 mm 1 mps 753 mmHg 83%
08:00 +16°C° 0 mm 1 mps 753 mmHg 71%
09:00 +19°C° 0 mm 2 mps 753 mmHg 59%
10:00 +21°C° 0 mm 3 mps 752 mmHg 48%
11:00 +24°C° 0 mm 3 mps 752 mmHg 43%
12:00 +25°C° 0 mm 3 mps 752 mmHg 39%
13:00 +26°C° 0 mm 4 mps 751 mmHg 35%
14:00 +27°C° 0 mm 4 mps 751 mmHg 34%
15:00 +27°C° 0 mm 4 mps 751 mmHg 32%
16:00 +27°C° 0 mm 4 mps 751 mmHg 31%
17:00 +26°C° 0 mm 3 mps 751 mmHg 39%
18:00 +24°C° 0 mm 2 mps 752 mmHg 47%
19:00 +21°C° 0 mm 2 mps 752 mmHg 55%
20:00 +20°C° 0 mm 1 mps 752 mmHg 63%
21:00 +18°C° 0 mm 1 mps 753 mmHg 72%
22:00 +15°C° 0 mm 1 mps 753 mmHg 80%
23:00 +14°C° 0 mm 1 mps 753 mmHg 83%

8 August, Saturday

Time Temperature Precipitation Wind Pressure Humidity
00:00 +13°C° 0 mm 0 mps 753 mmHg 86%
01:00 +12°C° 0 mm 0 mps 753 mmHg 88%
02:00 +12°C° 0 mm 0 mps 753 mmHg 89%
03:00 +11°C° 0 mm 0 mps 753 mmHg 90%
04:00 +11°C° 0 mm 0 mps 753 mmHg 91%
05:00 +12°C° 0 mm 0 mps 753 mmHg 84%
06:00 +14°C° 0 mm 0 mps 753 mmHg 77%
07:00 +15°C° 0 mm 0 mps 753 mmHg 70%
08:00 +20°C° 0 mm 1 mps 753 mmHg 63%
09:00 +21°C° 0 mm 2 mps 753 mmHg 56%
10:00 +24°C° 0 mm 2 mps 753 mmHg 49%
11:00 +26°C° 0 mm 3 mps 752 mmHg 47%
12:00 +27°C° 0 mm 3 mps 752 mmHg 45%
13:00 +28°C° 0 mm 3 mps 752 mmHg 43%
14:00 +28°C° 0 mm 3 mps 752 mmHg 42%
15:00 +28°C° 0 mm 4 mps 751 mmHg 42%
16:00 +28°C° 0 mm 4 mps 751 mmHg 42%
17:00 +26°C° 0 mm 4 mps 752 mmHg 48%
18:00 +24°C° 0 mm 3 mps 752 mmHg 53%
19:00 +22°C° 0 mm 3 mps 752 mmHg 59%
20:00 +19°C° 0 mm 2 mps 753 mmHg 65%
21:00 +17°C° 0 mm 2 mps 753 mmHg 70%
22:00 +14°C° 0 mm 1 mps 754 mmHg 76%
23:00 +13°C° 0 mm 1 mps 754 mmHg 80%

9 August, Sunday

Time Temperature Precipitation Wind Pressure Humidity
00:00 +12°C° 0 mm 1 mps 753 mmHg 85%
01:00 +10°C° 0 mm 1 mps 753 mmHg 90%
02:00 +10°C° 0 mm 1 mps 753 mmHg 92%
03:00 +9°C° 0 mm 1 mps 753 mmHg 93%
04:00 +8°C° 0 mm 0 mps 753 mmHg 95%
05:00 +10°C° 0 mm 1 mps 753 mmHg 89%
06:00 +12°C° 0 mm 1 mps 754 mmHg 83%
07:00 +13°C° 0 mm 1 mps 754 mmHg 78%
08:00 +15°C° 0 mm 1 mps 754 mmHg 67%
09:00 +18°C° 0 mm 2 mps 753 mmHg 56%
10:00 +20°C° 0 mm 3 mps 753 mmHg 45%
11:00 +22°C° 0 mm 3 mps 753 mmHg 41%
12:00 +24°C° 0 mm 3 mps 752 mmHg 37%
13:00 +25°C° 0 mm 3 mps 752 mmHg 33%
14:00 +26°C° 0 mm 3 mps 752 mmHg 33%
15:00 +26°C° 0 mm 3 mps 751 mmHg 33%
16:00 +26°C° 0 mm 3 mps 751 mmHg 33%
17:00 +24°C° 0 mm 2 mps 751 mmHg 41%
18:00 +21°C° 0 mm 2 mps 751 mmHg 50%
19:00 +20°C° 0 mm 1 mps 751 mmHg 58%
20:00 +18°C° 0 mm 1 mps 751 mmHg 68%
21:00 +15°C° 0 mm 1 mps 751 mmHg 78%
22:00 +13°C° 0 mm 1 mps 751 mmHg 87%
23:00 +12°C° 0 mm 1 mps 751 mmHg 90%
Show more